Location: *
(50.9167°S, 179.4000°W)
Time: 20:11:01
(UTC+00:00)

COSMOS 2428 - Pass Details

Date: 27 June 2024
Orbit: 843 x 857 km, 70.9° (Epoch: 17 July)

Event Time Altitude Azimuth Distance (km) Brightness Sun altitude
Exits shadow 17:34:47 - 192° (SSW) 2,572 5.0 -21.9°
Reaches altitude 10° 17:35:00 10° 190° (S) 2,522 5.0 -21.8°
Maximum altitude 17:38:31 16° 153° (SSE) 2,111 4.9 -21.3°
Drops below altitude 10° 17:42:00 10° 115° (ESE) 2,508 5.9 -20.8°
Sets 17:45:30 0° 93° (E) 3,435 7.3 -20.2°
